Tekamah, NE

5:11 AM CDT on March 27, 2017 (GMT -0500)
Tekamah

Weather History for KTQE - January, 2015

Change the Weather History Date:

Saturday, January 3, 2015

  Actual Average Record
Temperature  
Mean Temperature 21 °F -  
Max Temperature 32 °F 30 °F 60 °F (1964)
Min Temperature 10 °F 11 °F -15 °F (1968)
Degree Days  
Heating Degree Days 44    
Moisture  
Dew Point 14 °F    
Average Humidity 80    
Maximum Humidity 89    
Minimum Humidity 69    
Precipitation  
Precipitation 0.00 in - - ()
Sea Level Pressure  
Sea Level Pressure 29.99 in    
Wind  
Wind Speed 12 mph (WNW)    
Max Wind Speed 31 mph    
Max Gust Speed 38 mph    
Visibility 6 miles    
Events Snow    
Averages and records for this station are not official NWS values.
T = Trace of Precipitation, MM = Missing Value Source: NWS Daily Summary

Daily Weather History Graph

Daily Weather History Graph

Search for Another Location

Airport or City:

Trip Planner

Search our weather history database for the weather conditions in past years. The results will help you decide how hot, cold, wet, or windy it might be!

Date:

Astronomy

Jan. 03, 2015 Rise Set
Actual Time 7:52 AM CST 5:06 PM CST
Civil Twilight 7:20 AM CST 5:37 PM CST
Nautical Twilight 6:45 AM CST 6:12 PM CST
Astronomical Twilight 6:12 AM CST 6:46 PM CST
Moon 4:16 PM CST (1/3) 6:14 AM CST (1/3)
Length of Visible Light 10h 17m
Length of Day
9h 14m
Waxing Gibbous, 98% of the Moon is Illuminated
Jan 3
Waxing Gibbous
Jan 4
Full
Jan 13
Last Quarter
Jan 20
New
Jan 26
First Quarter

Hourly Weather History & Observations

Time (CST) Temp. Windchill Dew Point Humidity Pressure Visibility Wind Dir Wind Speed Gust Speed Precip Events Conditions
12:54 AM 21.9 °F 15.7 °F 19.0 °F 89% 29.99 in 7.0 mi SW 4.6 mph - N/A   Clear
1:54 AM 21.0 °F 10.6 °F 18.0 °F 88% 29.97 in 7.0 mi South 9.2 mph - N/A   Clear
2:54 AM 21.0 °F 11.4 °F 18.0 °F 88% 29.93 in 7.0 mi SSE 8.1 mph - N/A   Clear
3:54 AM 19.0 °F 10.0 °F 16.0 °F 88% 29.91 in 6.0 mi South 6.9 mph - N/A   Clear
4:54 AM 19.0 °F 12.3 °F 16.0 °F 88% 29.91 in 7.0 mi South 4.6 mph - N/A   Clear
5:54 AM 19.0 °F 11.1 °F 16.0 °F 88% 29.88 in 7.0 mi SSE 5.8 mph - N/A   Clear
6:54 AM 19.9 °F 13.4 °F 16.0 °F 85% 29.84 in 7.0 mi South 4.6 mph - N/A   Clear
7:54 AM 19.0 °F 10.0 °F 15.1 °F 85% 29.87 in 7.0 mi South 6.9 mph - N/A   Clear
8:54 AM 19.9 °F 11.1 °F 17.1 °F 89% 29.87 in 5.0 mi South 6.9 mph - N/A   Clear
9:54 AM 24.1 °F 16.0 °F 19.9 °F 84% 29.91 in 6.0 mi SSW 6.9 mph - N/A   Clear
10:54 AM 27.0 °F 23.0 °F 21.0 °F 78% 29.88 in 7.0 mi South 3.5 mph - N/A   Clear
11:54 AM 30.0 °F 26.5 °F 23.0 °F 75% 29.87 in 10.0 mi SSW 3.5 mph - N/A   Clear
12:54 PM 32.0 °F 26.4 °F 23.0 °F 69% 29.85 in 10.0 mi West 5.8 mph - N/A   Clear
1:54 PM 32.0 °F 22.1 °F 24.1 °F 73% 29.85 in 10.0 mi NNW 13.8 mph - N/A   Clear
2:54 PM 32.0 °F 20.8 °F 24.1 °F 73% 29.88 in 10.0 mi NNW 17.3 mph - N/A   Clear
3:24 PM 30.9 °F 17.8 °F 23.0 °F 72% 29.87 in 10.0 mi NNW 23.0 mph - N/A   Mostly Cloudy
3:54 PM 28.9 °F 15.8 °F 23.0 °F 78% 29.92 in 10.0 mi NW 20.7 mph 31.1 mph N/A   Overcast
4:54 PM 23.0 °F 7.2 °F 17.1 °F 78% 29.97 in 10.0 mi NNW 23.0 mph 31.1 mph N/A   Overcast
5:54 PM 18.0 °F -1.7 °F 10.9 °F 74% 30.01 in 10.0 mi NNW 31.1 mph 38.0 mph N/A   Overcast
6:54 PM 16.0 °F -2.8 °F 9.0 °F 74% 30.07 in 10.0 mi NNW 25.3 mph - N/A   Overcast
7:54 PM 14.0 °F -5.5 °F 7.0 °F 74% 30.14 in 10.0 mi NNW 25.3 mph 36.8 mph 0.00 in   Overcast
8:32 PM 12.9 °F -6.9 °F 6.1 °F 74% 30.11 in 2.0 mi NNW 25.3 mph 33.4 mph 0.00 in Snow Light Snow
8:39 PM 12.0 °F -7.7 °F 6.1 °F 77% 30.11 in 1.2 mi NNW 24.2 mph - 0.00 in Snow Light Snow
8:51 PM 12.2 °F -7.1 °F 6.8 °F 79% 30.11 in 1.0 mi NNW 23.0 mph - 0.00 in Snow Light Snow
8:54 PM 12.0 °F -6.9 °F 7.0 °F 80% 30.15 in 1.0 mi NNW 21.9 mph 31.1 mph 0.00 in Snow Light Snow
9:16 PM 12.0 °F -8.1 °F 7.0 °F 80% 30.12 in 0.8 mi North 25.3 mph 29.9 mph 0.00 in Snow Light Snow
9:50 PM 10.4 °F -10.7 °F 6.8 °F 85% 30.13 in 1.0 mi North 26.5 mph 32.2 mph 0.00 in Snow Light Snow
9:54 PM 10.9 °F -9.2 °F 7.0 °F 84% 30.17 in 1.0 mi North 24.2 mph 32.2 mph 0.00 in Snow Light Snow
10:12 PM 10.9 °F -9.6 °F 7.0 °F 84% 30.13 in 1.2 mi North 25.3 mph - 0.00 in Snow Light Snow
10:54 PM 10.9 °F -8.8 °F 6.1 °F 81% 30.19 in 1.0 mi NNW 23.0 mph - 0.00 in Snow Light Snow
11:54 PM 10.0 °F -11.5 °F 5.0 °F 80% 30.23 in 1.5 mi NNW 27.6 mph 34.5 mph 0.00 in Snow Light Snow